Location: Unspecified
(0.0000°N, 0.0000°E)
Time: 23:17:48
(UTC+00:00)

CUBESAT XI-V - Pass Details

Date: 14 December 2017
Orbit: 670 x 694 km, 97.9° (Epoch: 15 January)

Event Time Altitude Azimuth Distance (km) Brightness Sun altitude
Rises 03:04:22 0° 142° (SE) 3,021 ? -38.4°
Reaches altitude 10° 03:07:05 10° 126° (SE) 2,108 ? -37.8°
Enters shadow 03:09:11 18° 101° (E) 1,625 ? -37.4°
